Temperature
6 7 7 7 7 8 8 8 8 8 8 8 8 8 8 8 8 9 9 9 9 9 9 9 9 9 9 9 9 9 9 8 8 8 8 8 8 8 8 8 8 8 8
6 6 7 7 7 7 7 7 7 7 7 8 7 8 8 7 8 8 8 8 8 8 9 9 8 8 8 9 9 9 8 8 8 8 7 7 7 7 7 8 8 8 8
6 6 6 6 6 6 7 7 7 7 7 7 7 7 7 7 7 8 8 8 8 8 8 8 8 8 8 8 8 8 8 8 8 7 7 7 7 6 7 7 7 7 7
5 5 5 6 6 6 6 7 7 7 7 7 7 7 7 7 7 7 7 8 8 8 8 8 8 8 8 7 8 8 8 8 7 7 7 7 7 6 6 6 6 6 6
5 5 5 5 6 6 6 6 6 6 6 6 6 6 6 6 6 7 7 7 7 7 7 7 7 7 7 7 7 7 7 7 7 7 7 7 7 7 6 5 6 6 6
4 4 4 5 5 5 6 6 6 6 6 6 6 6 6 6 6 6 6 6 7 7 7 7 7 7 7 7 7 7 7 7 6 6 6 6 6 6 6 6 5 5 5
4 4 4 4 4 5 5 5 5 5 5 5 5 6 6 6 6 6 6 6 6 6 6 6 6 6 6 6 6 6 6 6 6 6 6 6 6 6 6 5 5 5 5
3 3 3 4 4 4 4 5 5 5 5 5 5 5 5 5 5 5 6 6 6 6 6 6 6 6 6 6 6 6 6 6 6 5 5 5 5 5 5 5 5 4 4
3 3 3 3 3 4 4 4 4 4 4 4 5 5 5 5 5 5 5 5 5 5 6 6 6 5 5 5 5 5 5 5 5 5 5 5 5 5 5 5 5 4 4
3 3 3 3 3 3 3 4 4 4 4 4 4 4 4 4 5 5 5 5 5 5 5 5 5 5 5 5 4 4 4 4 4 4 4 4 4 4 4 4 4 4 4
3 3 3 3 3 3 3 3 3 3 3 3 4 4 4 4 4 4 5 5 5 5 5 5 5 4 4 4 4 4 4 4 4 4 4 4 4 4 4 4 4 4 4
2 2 2 2 2 2 2 2 2 3 3 3 3 3 3 4 4 4 4 4 4 4 4 4 4 4 4 4 4 3 3 3 3 3 3 3 3 3 3 3 3 3 3
2 2 2 2 2 2 2 2 2 2 2 2 2 3 3 3 4 4 4 4 4 4 4 4 3 3 3 3 3 3 3 3 3 3 3 3 3 3 3 3 3 3 3
1 1 2 2 2 2 2 2 2 2 2 2 2 2 2 3 3 3 3 3 3 3 3 3 3 3 3 3 2 2 2 2 2 2 2 2 2 2 3 2 2 2 2
1 1 1 1 1 1 1 1 1 1 1 1 1 1 2 2 2 2 3 3 3 3 3 3 3 3 2 2 2 2 2 2 2 2 2 2 2 2 2 2 2 2 2
1 1 1 1 1 1 1 1 1 1 1 1 1 1 1 1 1 2 2 2 2 2 2 2 2 2 2 2 2 2 1 1 1 1 1 2 2 2 2 2 2 2 1
0 0 0 0 0 1 1 1 1 0 0 0 0 0 1 1 1 1 1 2 2 2 2 2 2 1 1 1 1 1 1 1 1 1 1 1 1 1 1 1 1 1 1
0 0 0 0 0 0 0 0 0 -0 -0 -0 -0 -0 -0 0 0 0 1 1 1 1 1 1 1 1 1 1 0 0 0 0 0 0 0 0 0 1 1 1 0 0 1
0 -0 -0 -0 -0 -0 -0 -0 -0 -1 -1 -1 -1 -1 -1 -1 -0 -0 -0 -0 0 0 0 0 0 0 0 -0 -0 -0 -0 -1 -1 -0 -0 -0 -0 -0 -0 -0 -0 -0 -0
-0 -0 -0 -0 -0 -0 -0 -1 -1 -1 -1 -1 -1 -1 -1 -1 -1 -1 -1 -1 -1 -1 -1 -1 -0 -0 -1 -1 -1 -1 -1 -1 -1 -1 -1 -1 -1 -1 -1 -1 -1 -1 -1
-0 -1 -1 -1 -1 -1 -1 -1 -1 -1 -1 -1 -2 -2 -2 -2 -2 -2 -1 -1 -1 -1 -1 -1 -1 -1 -1 -1 -1 -1 -1 -1 -1 -2 -1 -1 -1 -1 -1 -1 -1 -1 -1
-1 -1 -1 -1 -1 -1 -1 -1 -2 -2 -2 -2 -2 -2 -2 -2 -2 -2 -2 -2 -2 -2 -2 -2 -2 -2 -2 -2 -2 -2 -2 -2 -2 -2 -2 -2 -2 -2 -2 -2 -2 -2 -2
-1 -1 -1 -2 -2 -2 -2 -2 -2 -2 -2 -2 -2 -2 -3 -3 -3 -3 -3 -3 -3 -3 -3 -2 -2 -2 -2 -2 -2 -2 -2 -2 -2 -2 -2 -2 -2 -2 -2 -2 -2 -2 -2
-2 -2 -2 -2 -2 -2 -2 -2 -3 -2 -3 -3 -3 -3 -3 -3 -3 -3 -3 -3 -3 -3 -3 -3 -3 -3 -3 -3 -3 -3 -3 -3 -2 -2 -2 -2 -3 -3 -3 -3 -3 -3 -3
-2 -2 -2 -3 -2 -3 -3 -3 -3 -3 -3 -3 -3 -3 -3 -4 -4 -4 -4 -4 -4 -4 -4 -3 -3 -3 -3 -3 -3 -3 -3 -3 -3 -3 -3 -3 -3 -3 -3 -3 -3 -3 -3
-3 -3 -3 -3 -3 -3 -3 -3 -3 -3 -3 -4 -4 -4 -4 -4 -4 -4 -4 -4 -4 -4 -4 -4 -4 -4 -3 -3 -3 -3 -3 -3 -3 -3 -3 -3 -3 -3 -3 -3 -3 -4 -4
Wind_Speed
5 3 3 3 2 3 3 3 3 3 2 2 3 3 3 3 2 2 3 4 4 4 3 2 2 2 3 4 4 3 4 2 2 1 1 1 1 0 1 1 0 0 0
5 4 3 3 3 3 3 3 3 3 3 3 3 3 3 2 3 2 3 3 4 4 3 3 3 2 2 3 4 4 2 2 2 2 2 1 1 1 0 0 0 1 0
5 4 4 3 4 4 4 3 4 4 4 3 2 2 2 2 2 3 3 4 4 5 4 4 3 3 2 3 4 5 3 3 2 2 2 2 2 1 1 1 1 1 1
4 4 4 4 4 4 4 4 4 4 4 3 3 4 4 4 4 3 3 3 4 5 4 4 4 4 3 4 5 4 4 5 3 2 2 2 1 2 1 1 2 2 2
4 4 4 4 4 4 3 3 4 4 4 4 4 4 5 4 3 3 4 3 3 4 4 4 4 4 4 4 5 5 5 4 4 3 2 2 1 2 3 3 3 2 2
4 4 4 4 4 4 3 3 3 4 4 4 5 6 6 5 4 4 4 3 3 4 4 5 4 4 4 4 5 5 6 5 5 4 3 3 3 3 2 3 3 3 2
4 4 4 4 4 4 4 4 4 4 4 5 6 6 7 6 6 6 5 5 4 4 5 5 5 4 4 4 4 5 5 5 5 5 4 3 3 3 2 2 2 3 3
4 4 3 3 4 4 4 4 4 5 5 5 6 6 6 5 5 6 5 5 5 5 5 5 5 4 4 4 4 4 5 5 5 5 5 4 3 3 3 3 2 3 3
4 4 4 3 4 4 4 4 4 4 5 5 5 5 6 6 6 6 6 5 5 4 5 5 4 4 4 4 4 4 5 5 5 5 5 4 3 3 3 3 4 3 4
4 4 4 4 4 4 4 4 4 4 4 4 5 4 5 5 5 5 6 6 5 5 5 5 5 5 5 5 4 4 4 5 5 4 5 4 3 3 2 4 4 4 4
4 4 4 4 4 4 4 4 4 5 4 4 4 4 4 5 5 5 6 5 5 6 5 6 5 5 5 5 5 4 5 5 5 4 5 5 4 3 3 3 3 4 4
4 4 4 4 4 4 4 4 5 5 5 5 4 4 4 4 4 4 5 5 5 5 5 5 5 5 5 5 5 5 5 5 5 5 5 5 4 4 3 3 4 4 4
4 4 4 3 4 4 4 4 5 5 5 5 4 4 4 4 4 4 4 5 5 5 5 5 5 5 5 5 5 5 5 5 5 5 5 5 5 5 4 4 4 3 3
4 4 4 4 4 4 4 4 5 5 5 5 4 4 4 4 3 4 4 4 4 4 5 5 5 5 5 4 4 4 5 5 4 4 5 5 6 6 5 4 5 4 3
5 5 5 5 5 4 4 4 4 5 5 5 4 4 4 3 3 3 3 3 3 4 4 4 4 4 4 4 4 4 4 4 4 3 4 4 5 5 5 4 4 4 3
5 5 5 5 5 5 5 5 4 4 4 4 5 4 4 3 3 2 2 2 2 3 4 4 4 4 4 5 6 5 4 4 4 4 3 3 4 5 5 6 5 5 5
6 6 6 6 6 5 5 4 4 4 4 4 4 4 4 3 2 2 2 2 2 3 3 4 4 4 4 5 6 5 4 4 4 4 4 3 3 4 4 4 4 4 5
6 6 6 6 6 5 4 4 4 3 3 3 4 4 4 4 3 2 2 2 2 3 3 4 4 4 4 5 5 5 4 3 4 4 4 4 4 3 3 3 3 3 4
6 5 6 6 5 5 4 4 3 3 3 3 4 4 4 4 3 3 3 3 3 3 3 3 4 4 4 5 6 4 3 3 4 4 4 4 4 4 4 3 3 3 3
5 5 5 4 4 4 3 3 3 3 4 4 4 4 4 4 4 3 4 3 3 3 3 3 4 4 4 5 6 5 3 3 3 3 3 4 4 4 4 4 4 4 4
5 4 4 4 4 4 3 4 4 4 4 4 3 3 3 4 4 3 3 3 3 3 3 3 3 4 4 5 5 5 3 4 3 3 3 3 4 4 4 4 4 4 4
4 4 4 4 4 3 3 4 4 4 4 3 3 3 3 3 3 3 3 2 2 3 3 2 2 2 3 4 5 5 4 4 4 3 3 3 4 4 4 3 3 3 3
4 4 4 4 4 3 4 4 4 4 3 3 3 3 3 3 2 3 2 2 2 2 2 2 2 2 2 3 4 5 4 4 3 3 4 4 4 4 3 3 3 3 3
4 4 4 4 4 4 4 4 4 3 3 3 3 3 3 3 2 2 2 2 2 2 2 3 3 2 2 2 2 3 3 3 3 2 3 4 4 3 2 2 2 2 2
4 4 4 5 5 4 4 4 3 3 3 3 3 3 3 3 2 2 2 3 3 3 3 3 3 3 3 3 3 3 3 3 3 2 2 2 3 3 2 2 2 2 2
4 4 5 5 5 5 5 4 3 3 3 3 3 2 2 2 2 2 2 2 3 4 5 5 4 3 3 3 3 4 4 3 3 3 3 3 3 3 3 3 2 2 2
Wind_Direction
291 297 299 285 278 275 272 262 249 234 216 224 229 223 224 226 227 233 221 209 205 198 183 179 188 192 189 177 170 155 155 151 138 123 81 13 57 75 84 81 9 308 336
291 300 304 308 289 276 266 263 257 240 226 227 237 238 233 239 238 233 234 216 206 203 200 195 191 197 200 180 170 150 160 170 174 179 175 204 223 179 278 232 264 291 272
276 286 288 288 290 287 275 264 263 249 230 223 222 218 215 224 226 231 235 229 214 206 205 205 197 193 193 190 185 176 170 175 195 192 191 208 225 274 217 262 252 269 275
283 286 284 285 285 284 285 274 262 255 236 216 213 213 220 229 235 230 228 234 221 214 208 207 206 200 198 199 193 191 188 180 191 202 230 248 238 218 224 237 251 270 270
297 289 285 283 287 292 293 285 271 263 247 229 220 221 231 238 240 228 227 231 221 219 220 212 211 203 203 205 199 194 192 191 197 205 215 225 229 227 229 241 248 264 263
318 309 301 302 306 314 316 302 285 276 264 247 235 226 230 231 233 234 227 232 228 220 222 222 214 207 209 207 203 192 193 197 202 208 213 217 214 217 230 240 241 258 265
332 326 316 308 310 315 317 305 293 284 278 264 248 238 235 231 230 235 231 229 229 226 219 218 216 210 211 210 204 192 197 203 204 208 215 225 236 215 223 227 247 269 273
343 333 316 306 311 316 313 303 295 287 284 274 262 249 241 235 231 230 231 233 234 227 220 214 214 208 203 205 207 199 203 207 209 211 213 218 225 226 217 219 229 256 269
345 338 332 327 323 321 314 303 296 291 287 278 266 254 243 238 234 230 227 234 237 228 213 206 200 196 195 202 204 209 205 207 210 212 213 216 221 230 230 221 222 233 251
343 342 340 332 326 324 317 311 308 299 292 287 276 263 253 245 239 231 224 228 232 225 212 198 194 193 193 196 197 203 205 204 209 211 214 217 221 223 235 230 232 240 242
335 337 337 334 334 336 334 329 324 319 309 303 295 277 262 252 244 234 225 223 222 213 211 201 192 195 195 193 196 202 202 208 208 209 212 218 219 220 224 234 238 245 242
323 328 332 335 339 340 337 334 330 328 323 315 305 292 275 258 248 240 230 224 219 211 206 198 194 197 198 199 201 200 206 211 212 211 212 217 219 221 226 229 239 244 246
316 326 332 330 330 332 334 334 330 328 328 321 313 306 285 262 249 241 232 223 210 204 201 196 195 199 200 202 208 205 206 211 214 214 216 219 219 224 226 231 237 250 251
303 315 321 321 322 324 327 326 326 325 326 325 317 313 299 276 258 244 232 216 206 201 203 198 197 199 195 199 205 204 206 210 213 218 223 225 223 224 228 232 236 243 246
290 298 306 308 310 315 320 321 321 324 322 322 321 316 313 292 271 251 231 211 206 207 205 194 192 196 196 199 199 203 208 212 218 225 229 232 231 236 238 237 234 234 242
283 292 296 298 297 300 306 309 312 318 318 319 322 322 321 306 285 269 244 211 210 213 207 199 196 199 202 196 199 204 209 215 220 226 234 237 229 228 234 239 240 238 233
281 284 288 288 289 288 289 292 299 307 309 314 322 327 325 319 296 286 259 229 221 215 211 206 204 207 204 197 196 195 204 215 224 229 233 240 240 235 237 231 233 246 246
281 283 287 289 289 286 285 288 292 297 303 313 322 323 320 317 301 283 266 248 233 223 219 215 209 211 201 194 195 194 204 211 224 230 231 234 235 236 238 240 245 255 259
279 283 284 285 284 280 282 287 291 296 301 307 312 314 310 309 306 276 263 257 244 235 229 226 212 211 205 196 195 199 202 210 224 231 232 232 231 226 229 233 240 253 269
289 291 292 289 283 283 279 276 284 290 292 297 301 303 303 300 296 286 264 251 242 239 233 231 219 215 216 208 202 203 205 210 219 222 224 224 228 228 235 239 240 251 267
296 295 291 285 281 281 273 271 277 284 294 300 303 302 303 298 295 293 279 257 242 233 234 233 224 219 220 212 204 207 211 211 214 220 224 225 218 229 239 251 252 256 268
299 300 294 289 284 270 261 268 277 291 298 299 298 297 297 299 295 290 287 271 252 236 234 233 230 224 221 223 211 211 220 224 218 224 226 223 215 227 242 249 256 263 272
291 290 283 285 282 267 258 267 284 292 291 287 288 292 298 299 290 280 281 277 263 246 236 230 232 228 220 215 212 209 212 219 227 226 217 218 221 231 234 227 235 245 254
279 276 275 273 276 275 269 272 283 287 278 276 282 287 294 297 288 281 277 268 259 250 240 236 235 237 230 220 214 212 208 203 218 220 205 207 214 225 232 233 236 242 244
271 264 262 265 270 274 275 279 278 274 269 269 273 277 280 285 285 284 275 269 266 263 258 250 245 237 238 242 240 228 221 215 214 207 213 216 217 223 229 239 248 250 246
262 261 262 262 267 269 271 275 271 261 259 261 264 267 272 279 285 287 300 312 281 288 282 275 266 265 261 252 240 226 217 209 202 206 209 215 222 222 222 227 237 249 253
Height
1503 1503 1503 1503 1503 1503 1503 1503 1504 1504 1504 1504 1505 1505 1505 1506 1507 1508 1509 1510 1510 1511 1511 1512 1513 1513 1513 1513 1515 1515 1517 1519 1520 1521 1521 1522 1523 1523 1523 1523 1523 1523 1523
1500 1500 1500 1500 1500 1500 1500 1500 1500 1501 1501 1501 1502 1502 1503 1503 1504 1505 1506 1506 1507 1508 1508 1509 1509 1510 1510 1510 1511 1512 1513 1515 1517 1518 1519 1520 1522 1520 1521 1520 1520 1520 1520
1498 1497 1497 1497 1497 1497 1497 1497 1497 1497 1498 1499 1499 1499 1500 1500 1501 1502 1502 1503 1504 1504 1505 1506 1506 1507 1507 1508 1508 1509 1510 1511 1514 1516 1517 1518 1517 1517 1518 1517 1518 1518 1518
1496 1495 1494 1494 1494 1494 1494 1494 1494 1494 1495 1495 1495 1496 1496 1497 1497 1498 1499 1500 1500 1501 1502 1502 1503 1504 1504 1505 1505 1506 1508 1509 1510 1512 1513 1515 1514 1515 1514 1515 1515 1515 1515
1493 1492 1492 1491 1491 1491 1491 1490 1490 1491 1491 1492 1492 1492 1493 1494 1494 1495 1496 1496 1497 1497 1498 1499 1500 1500 1501 1501 1502 1503 1505 1506 1507 1508 1509 1510 1511 1512 1512 1511 1511 1512 1512
1491 1490 1490 1489 1488 1488 1487 1487 1487 1487 1488 1488 1488 1489 1490 1491 1491 1491 1492 1492 1493 1494 1494 1495 1496 1496 1497 1498 1499 1499 1501 1502 1504 1505 1506 1507 1507 1508 1508 1508 1508 1508 1508
1489 1488 1487 1486 1486 1485 1484 1484 1484 1484 1484 1484 1485 1485 1486 1487 1487 1488 1488 1489 1489 1489 1490 1491 1492 1493 1494 1495 1495 1496 1497 1499 1500 1501 1502 1503 1504 1505 1505 1505 1505 1504 1504
1488 1487 1486 1485 1484 1483 1482 1481 1481 1480 1480 1480 1481 1481 1482 1482 1483 1484 1484 1484 1485 1486 1487 1487 1488 1489 1490 1491 1492 1492 1494 1495 1496 1497 1498 1499 1500 1501 1501 1502 1502 1501 1501
1487 1486 1484 1483 1482 1481 1480 1479 1478 1477 1477 1477 1477 1478 1478 1478 1479 1480 1480 1481 1481 1482 1483 1483 1483 1485 1486 1488 1488 1488 1490 1491 1492 1493 1494 1495 1496 1496 1497 1498 1499 1499 1498
1486 1484 1483 1481 1480 1479 1478 1477 1476 1474 1474 1474 1473 1473 1474 1474 1475 1475 1476 1476 1477 1477 1478 1479 1480 1482 1483 1484 1484 1485 1486 1487 1488 1489 1490 1491 1492 1492 1493 1494 1495 1495 1495
1484 1483 1481 1480 1479 1477 1476 1474 1473 1472 1471 1470 1470 1469 1469 1469 1470 1470 1471 1472 1473 1473 1474 1475 1477 1478 1479 1480 1480 1481 1482 1483 1485 1485 1486 1487 1488 1488 1489 1489 1490 1491 1491
1483 1482 1480 1479 1477 1476 1474 1472 1471 1469 1468 1467 1466 1465 1465 1465 1465 1466 1466 1468 1468 1469 1470 1471 1472 1474 1475 1476 1476 1477 1479 1480 1480 1481 1482 1483 1484 1485 1485 1485 1486 1486 1487
1481 1480 1479 1477 1476 1474 1472 1470 1469 1467 1466 1464 1463 1461 1461 1460 1460 1461 1462 1463 1464 1465 1466 1467 1469 1470 1471 1472 1473 1473 1474 1475 1476 1477 1478 1479 1480 1480 1481 1481 1481 1482 1482
1479 1478 1476 1475 1474 1472 1470 1468 1467 1465 1464 1462 1460 1458 1457 1456 1456 1457 1458 1459 1460 1461 1462 1463 1465 1466 1467 1468 1469 1470 1470 1471 1472 1473 1474 1475 1476 1476 1477 1477 1477 1477 1477
1476 1475 1474 1473 1472 1470 1468 1466 1465 1463 1461 1459 1458 1456 1454 1453 1453 1453 1454 1455 1456 1457 1458 1460 1461 1462 1463 1464 1465 1465 1466 1467 1468 1469 1470 1471 1472 1472 1473 1473 1473 1473 1473
1474 1473 1472 1470 1469 1468 1466 1464 1462 1461 1459 1457 1455 1453 1452 1451 1450 1450 1451 1451 1452 1453 1454 1456 1457 1458 1459 1460 1461 1462 1463 1463 1464 1465 1466 1467 1467 1468 1468 1469 1469 1469 1469
1471 1470 1469 1467 1466 1465 1463 1461 1460 1458 1456 1455 1453 1451 1449 1448 1448 1448 1448 1448 1449 1450 1451 1452 1453 1454 1455 1456 1457 1458 1459 1459 1460 1461 1462 1462 1463 1464 1464 1464 1464 1464 1465
1468 1467 1466 1464 1463 1462 1460 1459 1457 1455 1454 1452 1450 1448 1447 1446 1445 1445 1445 1445 1446 1446 1447 1448 1449 1450 1451 1452 1453 1454 1455 1456 1457 1457 1458 1458 1459 1460 1460 1460 1460 1460 1460
1465 1464 1463 1461 1459 1458 1457 1456 1454 1453 1451 1449 1448 1447 1445 1444 1443 1443 1443 1443 1443 1443 1444 1444 1445 1446 1447 1448 1450 1451 1451 1452 1453 1453 1454 1455 1455 1456 1456 1457 1456 1456 1457
1461 1460 1459 1458 1457 1455 1454 1453 1451 1450 1449 1447 1446 1445 1443 1442 1441 1440 1440 1441 1441 1441 1441 1441 1442 1442 1443 1445 1446 1447 1448 1448 1449 1450 1450 1451 1452 1452 1453 1453 1453 1452 1452
1458 1457 1456 1455 1454 1453 1451 1450 1448 1447 1446 1445 1444 1443 1441 1440 1439 1438 1438 1438 1438 1438 1437 1437 1438 1439 1440 1441 1442 1444 1444 1445 1445 1446 1447 1448 1448 1449 1449 1449 1449 1449 1450
1455 1454 1453 1452 1451 1450 1448 1447 1446 1445 1444 1443 1442 1440 1439 1438 1436 1436 1435 1435 1435 1434 1434 1434 1434 1435 1436 1438 1439 1440 1441 1441 1442 1442 1443 1444 1445 1445 1446 1446 1446 1447 1447
1452 1451 1450 1448 1447 1447 1446 1444 1443 1442 1441 1440 1439 1438 1437 1435 1434 1433 1432 1432 1432 1431 1431 1431 1431 1432 1433 1434 1435 1436 1437 1438 1439 1439 1440 1441 1441 1442 1442 1443 1443 1443 1444
1448 1447 1446 1445 1444 1443 1443 1442 1441 1439 1438 1437 1436 1435 1434 1433 1432 1431 1430 1429 1429 1429 1428 1428 1428 1429 1430 1430 1431 1432 1433 1434 1435 1436 1437 1437 1438 1439 1439 1439 1439 1440 1440
1445 1444 1443 1442 1441 1440 1439 1438 1437 1436 1435 1434 1433 1432 1431 1430 1429 1428 1428 1427 1427 1427 1426 1426 1426 1426 1426 1427 1429 1429 1430 1431 1432 1433 1433 1434 1434 1435 1435 1436 1436 1436 1437
1441 1440 1439 1438 1437 1437 1436 1435 1434 1433 1432 1431 1430 1430 1429 1428 1427 1426 1425 1425 1424 1424 1424 1424 1424 1424 1425 1425 1425 1426 1427 1428 1429 1430 1430 1430 1431 1431 1432 1432 1432 1433 1433